Weather History for Bloomington, IL

Change the Weather History Date:

Sunday, October 7, 2012

  Actual Average Record
Temperature  
Mean Temperature 40 °F -  
Max Temperature 47 °F 57 °F 90 °F (2007)
Min Temperature 34 °F 46 °F 30 °F (2000)
Degree Days  
Heating Degree Days 24    
Moisture  
Dew Point 28 °F    
Average Humidity 61    
Maximum Humidity 80    
Minimum Humidity 39    
Precipitation  
Precipitation 0.00 in - - ()
Sea Level Pressure  
Sea Level Pressure 30.23 in    
Wind  
Wind Speed 7 mph (West)    
Max Wind Speed 14 mph    
Max Gust Speed -    
Visibility 10 miles    
Events      
Averages and records for this station are not official NWS values.
T = Trace of Precipitation, MM = Missing Value Source: NWS Daily Summary

Daily Weather History Graph

Daily Weather History Graph

Search for Another Location

Airport:

Trip Planner

Search our weather history database for the weather conditions in past years. The results will help you decide how hot, cold, wet, or windy it might be!

Date:

Astronomy

Oct. 07, 2012 Rise Set
Actual Time 6:58 AM CDT 6:27 PM CDT
Civil Twilight 6:31 AM CDT 6:54 PM CDT
Nautical Twilight 5:59 AM CDT 7:26 PM CDT
Astronomical Twilight 5:28 AM CDT 7:57 PM CDT
Moon 11:38 PM CDT (10/7) 1:36 PM CDT (10/7)
Length of Visible Light 12h 23m
Length of Day
11h 28m
Waning Gibbous, 56% of the Moon is Illuminated
Oct 7
Waning Gibbous
Oct 8
Last Quarter
Oct 15
New
Oct 21
First Quarter
Oct 29
Full

Hourly Weather History & Observations

Time (CDT) Temp. Windchill Dew Point Humidity Pressure Visibility Wind Dir Wind Speed Gust Speed Precip Events Conditions
12:56 AM 39.9 °F 35.1 °F 28.0 °F 63% 30.22 in 10.0 mi NW 6.9 mph - N/A   Overcast
1:56 AM 39.9 °F 34.5 °F 29.1 °F 65% 30.24 in 10.0 mi WNW 8.1 mph - N/A   Overcast
2:56 AM 39.9 °F 34.5 °F 30.0 °F 68% 30.23 in 10.0 mi WNW 8.1 mph - N/A   Overcast
3:56 AM 38.8 °F 33.2 °F 29.1 °F 68% 30.22 in 10.0 mi NW 8.1 mph - N/A   Overcast
4:56 AM 37.9 °F 32.7 °F 30.0 °F 73% 30.22 in 10.0 mi WNW 6.9 mph - N/A   Scattered Clouds
5:56 AM 36.9 °F 34.3 °F 31.1 °F 80% 30.22 in 10.0 mi West 3.5 mph - N/A   Clear
6:56 AM 37.9 °F 31.5 °F 32.0 °F 79% 30.23 in 10.0 mi WNW 9.2 mph - N/A   Overcast
7:56 AM 38.8 °F 33.2 °F 31.1 °F 74% 30.24 in 10.0 mi WNW 8.1 mph - N/A   Overcast
8:56 AM 39.9 °F 33.9 °F 31.1 °F 71% 30.25 in 10.0 mi WNW 9.2 mph - N/A   Overcast
9:56 AM 41.9 °F 36.3 °F 30.0 °F 63% 30.26 in 10.0 mi NW 9.2 mph - N/A   Overcast
10:56 AM 45.0 °F 41.8 °F 29.1 °F 54% 30.26 in 10.0 mi NNW 5.8 mph - N/A   Mostly Cloudy
11:56 AM 43.9 °F 37.2 °F 25.2 °F 48% 30.27 in 10.0 mi WNW 13.8 mph - N/A   Overcast
12:56 PM 45.0 °F 41.2 °F 26.1 °F 48% 30.25 in 10.0 mi Variable 6.9 mph - N/A   Overcast
1:56 PM 45.0 °F 40.6 °F 26.1 °F 48% 30.23 in 10.0 mi WNW 8.1 mph - N/A   Overcast
2:56 PM 46.9 °F - 27.1 °F 46% 30.22 in 10.0 mi WSW 8.1 mph - N/A   Mostly Cloudy
3:56 PM 47.8 °F - 25.2 °F 41% 30.20 in 10.0 mi SW 4.6 mph - N/A   Clear
4:56 PM 46.9 °F - 23.0 °F 39% 30.19 in 10.0 mi WSW 5.8 mph - N/A   Clear
5:56 PM 45.9 °F 44.6 °F 25.2 °F 44% 30.20 in 10.0 mi West 3.5 mph - N/A   Clear
6:56 PM 41.9 °F 39.0 °F 25.2 °F 52% 30.21 in 10.0 mi SSW 4.6 mph - N/A   Clear
7:56 PM 37.9 °F 35.5 °F 28.0 °F 68% 30.21 in 10.0 mi SW 3.5 mph - N/A   Clear
8:56 PM 37.9 °F 34.4 °F 26.1 °F 62% 30.22 in 10.0 mi SW 4.6 mph - N/A   Clear
9:56 PM 36.0 °F 32.1 °F 25.2 °F 65% 30.22 in 10.0 mi SSW 4.6 mph - N/A   Clear
10:56 PM 34.9 °F 30.8 °F 25.2 °F 68% 30.22 in 10.0 mi SSW 4.6 mph - N/A   Clear
11:56 PM 34.0 °F 29.8 °F 26.1 °F 73% 30.22 in 10.0 mi SSW 4.6 mph - N/A   Clear